Location: ??????????-????????
(48.4849°N, 37.8242°E)
Time: 21:41:09
(UTC+00:00)

Daily predictions for brighter satellites

Satellite Brightness Start Highest point End
(mag) Time Altitude Azimuth Time Altitude Azimuth Time Altitude Azimuth
NOSS 3-1 (A) 4.5 14:01:00 10° NW 14:07:31 39° NNE 14:15:10 10° E
ATLAS CENTAUR R/B 1.6 14:06:09 10° SSW 14:10:10 62° ESE 14:14:31 10° NE
FengYun 1-2 T 4.4 14:05:21 10° SE 14:10:47 54° ENE 14:16:13 10° N
NOSS 2-1 (C) 3.4 14:07:53 10° SSW 14:11:02 43° SE 14:14:11 10° NE
Cosmos 1862 3.4 14:07:16 10° N 14:11:11 52° ENE 14:15:04 10° SSE
NOSS 3-1 (C) 4.2 14:04:42 10° NW 14:11:39 53° NE 14:19:53 10° ESE
USA 81 4.2 14:06:48 10° S 14:12:05 85° W 14:17:23 10° N
Iridium 2 4.0 14:10:18 10° N 14:13:57 45° E 14:17:34 10° SSE
USA 234 3.6 14:08:23 10° SE 14:14:54 72° SW 14:21:27 10° WNW
ARGOS 4.4 14:11:39 10° E 14:15:21 19° ENE 14:19:04 10° NNE
Nadezhda 4 Rocket 4.4 14:12:18 10° N 14:18:12 40° ENE 14:24:05 10° SE
NOSS 2-1 (D) 3.0 14:17:05 10° SSW 14:20:18 55° SE 14:23:32 10° NE
SeaSat 1 4.4 14:18:48 10° N 14:22:28 21° NW 14:26:07 10° W
ATLAS 3B R/B 4.2 14:16:22 10° NW 14:23:11 45° WSW 14:30:13 10° S
USA 308 3.0 14:20:23 10° SW 14:24:35 67° SSE 14:28:42 11° ENE
Cosmos 1777 Rocket 4.0 14:19:23 10° NNW 14:24:43 86° ENE 14:30:00 10° SSE
Cosmos 1606 3.2 14:21:44 10° SSE 14:25:12 37° E 14:28:42 10° NNE
Cosmos 1408 Rocket 4.0 14:21:46 10° N 14:25:52 39° ENE 14:29:57 10° SE
Meteor PRIRODA 3.6 14:22:41 10° SSE 14:26:21 87° WSW 14:30:00 10° NNW
H-2A R/B 2.6 14:26:02 10° SE 14:30:43 35° ENE 14:35:19 10° N
Cosmos 1461 3.1 14:28:42 10° SW 14:32:55 69° NW 14:37:01 10° NE
CZ-2C R/B 3.8 14:30:18 10° NE 14:34:09 20° E 14:37:55 10° SE
Cosmos 1898 Rocket 4.4 14:29:56 10° N 14:34:23 26° NE 14:38:46 10° ESE
Cosmos 1513 Rocket 4.5 14:30:05 10° S 14:36:05 65° E 14:42:12 10° NNE
AQUARIUS 4.2 14:33:06 10° SSE 14:37:30 59° ENE 14:41:56 10° N
USA 276 2.1 14:36:16 10° W 14:39:23 64° N 14:41:48 16° E
NOAA 12 4.4 14:36:13 10° S 14:41:33 76° WSW 14:46:54 10° NNW
SL-08 R/B 3.8 14:37:07 10° N 14:41:52 63° WNW 14:46:29 10° SSW
Cosmos 2034 Rocket 4.2 14:38:39 10° SSE 14:44:32 49° E 14:50:25 10° NNE
CZ-4B R/B 3.6 14:41:20 10° S 14:45:29 58° WSW 14:49:28 10° NNW
CZ-4 R/B 3.5 14:48:29 11° NE 14:48:29 11° NE 14:48:50 10° NNE
USA 305 2.9 14:50:18 10° WSW 14:54:31 78° NNW 14:57:28 19° ENE
Okean 3 Rocket 4.3 14:50:44 10° NNW 14:55:12 58° W 14:59:35 10° S
Cosmos 1782 4.5 14:55:02 10° SE 14:56:49 16° E 14:56:49 16° E
Cosmos 1697 Rocket 3.2 14:52:51 10° NNW 14:58:04 36° NE 15:03:14 10° ESE
SJ 16-02 1.9 14:54:13 10° NNW 14:58:32 60° WSW 15:02:50 10° S
Cosmos 1271 Rocket 3.5 14:55:03 10° SSW 14:58:53 55° WNW 15:02:48 10° N
Cosmos 1980 Rocket 3.3 14:54:37 10° N 14:59:11 24° NE 15:01:26 19° ENE
Cosmos 1500 Rocket 3.7 14:55:53 10° N 15:00:16 52° ENE 15:04:35 10° SSE
SL-16 R/B 4.1 14:59:04 10° N 15:00:59 12° NNE 15:01:42 11° NE
SMAP 3.4 14:58:02 10° S 15:02:40 70° WSW 15:07:20 10° NNW
CZ-4B DEB 4.2 14:57:33 10° SSE 15:03:05 89° ENE 15:08:38 10° NNW
ERBS 2.2 15:00:45 10° SW 15:03:55 65° SE 15:05:20 29° ENE
GEOS 3 Rocket 3.6 15:00:06 10° ESE 15:05:15 60° NE 15:10:22 10° NW
NOAA 6 4.4 15:00:54 10° S 15:06:02 68° WSW 15:11:11 10° NNW
Cosmos 1340 Rocket 2.7 15:03:15 10° N 15:07:18 65° ENE 15:11:21 10° SSE
Cosmos 1656 3.6 15:03:34 10° NNW 15:09:07 75° ENE 15:14:41 10° SSE
Cosmos 2082 Rocket 4.0 15:06:27 10° SE 15:08:02 13° ESE 15:08:02 13° ESE
Cosmos 1805 Rocket 3.9 15:06:47 10° N 15:10:54 39° ENE 15:14:58 10° SE
COSMOS 2406 4.3 15:06:26 10° SSE 15:10:59 25° ESE 15:12:20 22° E
Cosmos 1634 Rocket 4.4 15:05:28 10° SSE 15:11:13 38° E 15:16:59 10° NNE
Cosmos 1842 Rocket 3.6 15:08:25 10° S 15:12:52 89° W 15:17:22 10° N
Cosmos 44 3.1 15:08:33 10° NW 15:13:26 81° NE 15:17:59 10° SE
Lacrosse 5 rocket 2.8 15:11:27 10° WNW 15:14:35 23° N 15:15:54 20° NNE
PAYLOAD B 4.2 15:10:05 10° SSE 15:15:42 88° ENE 15:21:22 10° NNW
Cosmos 1933 3.8 15:12:13 10° SSE 15:16:00 39° E 15:17:37 26° NE
NOSS 2-1 (E) 3.8 15:17:02 10° WSW 15:20:07 41° NW 15:21:52 22° NNE
SJ-11-01 4.3 15:16:52 10° SSE 15:21:30 55° ENE 15:26:09 10° N
USA 267 3.7 15:18:43 20° NE 15:23:16 54° NNW 15:29:35 10° W
ISS -3.2 15:20:14 10° WNW 15:23:33 47° N 15:24:15 40° NE
Cosmos 1937 Rocket 3.8 15:19:11 10° NNW 15:24:18 45° ENE 15:28:19 16° SE
Cosmos 1602 3.8 15:20:55 10° N 15:24:40 51° ENE 15:28:25 10° SSE
Sich 1 3.3 15:20:53 10° N 15:24:58 43° ENE 15:29:03 10° SSE
Cosmos 2026 Rocket 3.9 15:19:58 10° N 15:26:06 60° ENE 15:32:07 10° SSE
USA 306 3.2 15:22:11 10° W 15:26:23 57° NNW 15:28:03 33° NE
SL-08 RB Rocket 4.0 15:22:17 10° SE 15:26:40 42° ENE 15:31:02 10° N
Cosmos 2195 Rocket 4.3 15:21:49 10° N 15:27:57 72° E 15:34:07 10° SSE
Cosmos 1763 Rocket 3.5 15:23:07 10° S 15:28:00 51° ESE 15:30:27 28° NE
CZ-4C R/B 3.4 15:22:05 10° NW 15:28:18 38° NNE 15:31:30 27° ENE
Meteor 1-20 Rocket 4.2 15:26:54 10° NNW 15:32:43 89° ENE 15:38:35 10° S
MOS 1-B Rocket 3.8 15:27:48 10° NNE 15:33:30 75° ESE 15:39:47 10° S
USA 229 DEB 3.8 15:28:32 10° NW 15:35:49 76° NE 15:43:24 11° SE
USA 229 3.8 15:28:37 10° NW 15:35:55 76° NE 15:43:23 11° SE
COSMO-SKYMED 1 2.5 15:33:42 24° NNE 15:36:17 66° ESE 15:40:35 10° S
CZ-2D R/B 4.1 15:33:22 10° S 15:37:07 51° W 15:40:54 10° NNW
Cosmos 2221 3.7 15:33:51 10° SSW 15:37:55 42° WNW 15:42:01 10° N
COSMOS 2455 3.9 15:33:35 10° SSE 15:37:56 26° ESE 15:37:56 26° ESE
Cosmos 2360 4.1 15:34:56 10° NNW 15:40:40 65° ENE 15:45:01 18° SE
Lacrosse 5 4.4 15:37:17 10° WNW 15:41:02 21° SW 15:44:45 10° S
Cosmos 990 Rocket 4.0 15:36:22 10° NNW 15:41:37 79° WSW 15:46:46 10° SSE
Okean O Rocket 1.5 15:37:12 10° SSE 15:41:39 84° ENE 15:46:09 10° NNW
USA 307 3.3 15:38:11 10° W 15:42:24 53° NNW 15:43:26 42° NNE
Landsat 5 3.5 15:42:26 51° ENE 15:42:59 56° E 15:47:01 10° S
ATLAS 2AS CENTAUR R/B 4.2 15:37:17 10° WNW 15:43:55 30° NNW 15:48:32 17° NNE
Meteor 2-21 4.3 15:37:54 10° N 15:44:02 73° ENE 15:50:05 10° SSE
Cosmos 1833 Rocket 2.8 15:38:40 10° S 15:44:06 53° ESE 15:45:51 39° ENE
CZ-4B R/B 3.3 15:39:38 10° S 15:45:06 77° WSW 15:50:31 10° NNW
deb Chang Zheng 4 3.8 15:42:11 10° S 15:46:28 72° WSW 15:50:48 10° NNW
CZ-4 R/B 4.3 15:42:41 10° SSE 15:46:49 88° ENE 15:50:58 10° NNW
Helios 1B 4.4 15:45:01 27° NNE 15:47:21 84° ESE 15:51:42 10° SSW
ATLAS CENTAUR R/B 3.3 15:45:52 10° W 15:49:25 25° NW 15:51:32 18° N
Cosmos 858 Rocket 4.4 15:48:00 10° NNW 15:53:18 69° ENE 15:55:49 31° SE
YAOGAN 1 3.5 15:55:56 34° N 15:55:56 34° N 15:58:31 10° N
Cosmos 372 Rocket 4.1 15:49:42 10° NNW 15:54:48 51° ENE 15:54:49 51° ENE
ARGOS 3.2 15:49:34 10° SSE 15:55:00 80° WSW 16:00:27 10° NNW
NOSS 3-1 (A) 4.1 15:51:45 10° NW 15:59:12 82° SW 16:07:57 10° SSE
USA 308 3.5 16:00:34 10° W 16:04:40 46° NNW 16:04:43 46° NNW
Spot 2 4.3 16:02:28 14° SSE 16:06:55 79° ENE 16:12:06 10° NNW
H-2A R/B 3.5 16:05:15 10° SSW 16:10:06 37° W 16:14:52 10° NNW
NOSS 2-2 (D) 4.2 16:05:53 10° NW 16:10:50 64° NE 16:11:24 61° ENE
SL-24 R/B - RUBIN 2 4.5 16:06:40 10° NNW 16:09:52 38° N 16:09:52 38° N
NOSS 2-2 (E) 4.2 16:07:25 10° NW 16:12:33 77° NE 16:14:05 54° ESE
Cosmos 2084 3.6 16:09:57 10° NW 16:14:14 70° SW 16:14:15 70° SW
CZ-2C R/B 3.0 16:10:01 12° N 16:14:54 62° WNW 16:20:00 10° SSW
USA 276 4.3 16:12:22 10° WNW 16:13:55 26° W 16:13:55 26° W
Cosmos 1898 Rocket 4.1 16:11:40 10° NNW 16:16:48 55° WSW 16:21:53 10° S
Cosmos 2360 Rocket 4.3 16:13:41 10° N 16:14:53 13° N 16:14:53 13° N
CZ-4 R/B 3.7 16:24:30 17° NNW 16:24:30 17° NNW 16:25:26 10° NNW
Meteor 1-5 Rocket 4.2 16:18:45 10° N 16:24:47 84° ENE 16:26:43 46° SSE
Cosmos 468 Rocket 4.5 16:21:14 10° SW 16:26:17 57° WNW 16:27:47 41° N
Cosmos 2142 Rocket 4.3 16:20:54 10° S 16:27:03 89° E 16:31:00 24° N
Cosmos 2369 3.7 16:25:13 10° NNW 16:30:59 78° WSW 16:31:55 62° S
ATLAS CENTAUR R/B 2.5 16:24:12 10° SW 16:32:02 75° W 16:32:02 75° W
Cosmos 2322 Rocket 4.1 16:28:30 10° NNW 16:30:19 18° N 16:30:19 18° N
Cosmos 1782 4.3 16:29:44 10° SSW 16:32:27 35° WSW 16:32:27 35° WSW
USA 305 4.5 16:30:47 10° WNW 16:33:28 31° NW 16:33:28 31° NW
Cosmos 540 Rocket 3.8 16:34:39 10° SSW 16:39:02 61° WSW 16:39:02 61° WSW
Cosmos 1697 Rocket 3.7 16:36:50 10° NW 16:42:08 44° WSW 16:45:58 18° S
Cosmos 1980 Rocket 2.3 16:38:08 10° NNW 16:43:14 69° WNW 16:43:14 69° WNW
SL-16 R/B 3.9 16:41:31 10° NNW 16:43:34 21° N 16:43:34 21° N
Cosmos 2279 Rocket 4.1 16:41:21 10° SSW 16:47:33 70° W 16:50:30 33° N
Cosmos 2082 Rocket 3.3 16:46:48 10° SSW 16:49:56 34° SSW 16:49:56 34° SSW
Lacrosse 5 rocket 4.0 16:50:55 10° NW 16:51:29 13° NW 16:51:29 13° NW
COSMOS 2406 3.6 16:49:09 10° SW 16:54:26 61° W 16:54:26 61° W
USA 267 4.0 17:06:04 42° N 17:06:04 42° N 17:11:42 10° WNW
CZ-4C R/B 3.0 17:10:25 10° NW 17:16:42 72° WNW 17:16:42 72° WNW
COSMOS 2455 4.2 17:17:55 10° SW 17:21:08 33° SW 17:21:08 33° SW
Cosmos 1833 Rocket 4.3 17:23:20 10° WSW 17:27:36 30° WNW 17:27:36 30° WNW
ATLAS 2AS CENTAUR R/B 4.4 17:31:10 10° NW 17:35:57 24° N 17:35:57 24° N
